[[[{"header":{"parameterUnit":"kt","parameterCategory":2,"dx":1,"dy":1,"la1":30.253999710083008,"la2":30.299108505249023,"lo1":-89.0895004272461,"lo2":-89.04439544677734,"nx":28,"ny":28,"refTime":"2022-10-28T21:00:00:Z","depth":0,"parameterNumber":1,"parameterNumberName":"U-component_of_WINDS"},"data":[-8.0804,-8.1089,-8.1229,-8.1625,-8.1821,-8.212,-8.2274,-8.2492,-8.2704,-8.309,-8.334,-8.3525,-8.3806,-8.4151,-8.4439,-8.4519,-8.463,-8.4624,-8.4719,-8.4598,-8.4592,-8.4586,-8.452,-8.4647,-8.4647,-8.482,-8.4821,-8.4822,-8.0702,-8.0893,-8.1143,-8.1482,-8.17,-8.1789,-8.2073,-8.2253,-8.2523,-8.279,-8.3044,-8.3401,-8.3707,-8.3999,-8.4322,-8.4473,-8.4539,-8.455,-8.454,-8.4584,-8.4462,-8.439,-8.4491,-8.4491,-8.4491,-8.4491,-8.4491,-8.4491,-8.0552,-8.0718,-8.1002,-8.1278,-8.149,-8.172,-8.1909,-8.2125,-8.2381,-8.2723,-8.2856,-8.3171,-8.3475,-8.3943,-8.4141,-8.4399,-8.4416,-8.4479,-8.4495,-8.4505,-8.4494,-8.4218,-8.4464,-8.4464,-8.4465,-8.4465,-8.4465,0,-8.0485,-8.059,-8.084,-8.1132,-8.1343,-8.1588,-8.1839,-8.1962,-8.2252,-8.2454,-8.2761,-8.2965,-8.3375,-8.3688,-8.4029,-8.4226,-8.4351,-8.4384,-8.4427,-8.436,-8.4257,-8.4312,-8.4102,-8.4375,-8.4375,-8.4375,-8.4375,-8.4375,-8.0341,-8.052,-8.0891,-8.1048,-8.1218,-8.1473,-8.1656,-8.1897,-8.2083,-8.2437,-8.2581,-8.2896,-8.316,-8.3642,-8.3911,-8.4223,-8.4287,-8.4373,-8.4336,-8.4265,-8.4286,-8.427,-8.4291,-8.4373,-8.4374,-8.4374,-8.4374,0,-8.0246,-8.0478,-8.0803,-8.1157,-8.1253,-8.1432,-8.1741,-8.1926,-8.2121,-8.2404,-8.2486,-8.2795,-8.31,-8.3356,-8.3762,-8.3888,-8.4205,-8.4262,-8.4099,-8.4123,-8.4223,-8.4209,-8.4514,-8.4567,-8.4442,-8.4443,-8.4444,0,-8.0213,-8.0443,-8.0775,-8.0952,-8.1217,-8.145,-8.171,-8.1903,-8.2162,-8.2388,-8.2564,-8.2775,-8.307,-8.3322,-8.3508,-8.3814,-8.3893,-8.4007,-8.4052,-8.3988,-8.3972,-8.4093,-8.4085,-8.4154,-8.4153,-8.4151,-8.415,0,-8.0035,-8.0486,-8.0774,-8.0915,-8.1319,-8.1453,-8.1631,-8.1924,-8.2105,-8.2383,-8.2504,-8.2817,-8.2987,-8.323,-8.3463,-8.3427,-8.3845,-8.3845,-8.3962,-8.3956,-8.4038,-8.4029,-8.4237,-8.4147,-8.4147,-8.4146,-8.4146,0,-8.0044,-8.0303,-8.0689,-8.1028,-8.1139,-8.1335,-8.1646,-8.1873,-8.2172,-8.2297,-8.2521,-8.2669,-8.2957,-8.2937,-8.3341,-8.3226,-8.3388,-8.3525,-8.3538,-8.3576,-8.3545,-8.3623,-8.3798,-8.3824,-8.3616,-8.3612,-8.3608,0,-7.9775,-8.0225,-8.0424,-8.0791,-8.1033,-8.1206,-8.1432,-8.1687,-8.1873,-8.2115,-8.2327,-8.2604,-8.2643,-8.2766,-8.2933,-8.3164,-8.3314,-8.3153,-8.3511,-8.3521,-8.3416,-8.3582,-8.354,-8.3731,-8.3556,-8.3561,-8.3565,0,-7.9594,-8.0074,-8.0125,-8.0294,-8.0663,-8.087,-8.1129,-8.1449,-8.1597,-8.1871,-8.2096,-8.2498,-8.2542,-8.2744,-8.29,-8.3061,-8.3221,-8.309,-8.3101,-8.3101,-8.3552,-8.351,-8.3541,-8.3292,-8.3299,-8.3305,-8.3523,0,-7.9545,-7.9802,-7.995,-8.0318,-8.0517,-8.0761,-8.1017,-8.1196,-8.1318,-8.1507,-8.1848,-8.2134,-8.2472,-8.2577,-8.2704,-8.2986,-8.298,-8.3026,-8.3024,-8.3131,-8.321,-8.3242,-8.2884,-8.2886,-8.2887,-8.2888,0,0,-7.9229,-7.9599,-7.981,-8.0062,-8.0242,-8.0417,-8.0655,-8.0856,-8.1255,-8.138,-8.138,-8.1983,-8.2216,-8.2605,-8.2658,-8.2798,-8.2874,-8.2826,-8.3079,-8.3098,-8.3118,-8.3197,-8.3227,-8.2891,-8.2891,-8.2892,-8.2892,0,-7.926,-7.9474,-7.9701,-7.9914,-8.0234,-8.042,-8.0475,-8.0828,-8.096,-8.1293,-8.1441,-8.1679,-8.2157,-8.2383,-8.2561,-8.2786,-8.2888,-8.2872,-8.29,-8.3082,-8.31,-8.3118,-8.3197,-8.3223,-8.2895,-8.2895,-8.2895,0,-7.9125,-7.9376,-7.9513,-7.9926,-8.014,-8.0389,-8.0446,-8.0708,-8.0898,-8.1089,-8.1416,-8.1612,-8.194,-8.2272,-8.2432,-8.2438,-8.2885,-8.2794,-8.2793,-8.2816,-8.3006,-8.3028,-8.3046,-8.2793,-8.2791,-8.279,0,0,-7.9118,-7.9356,-7.9704,-7.9952,-8.0075,-8.0355,-8.0515,-8.0652,-8.0933,-8.1045,-8.1296,-8.1572,-8.1854,-8.2034,-8.2312,-8.2641,-8.273,-8.2769,-8.2774,-8.2777,-8.2801,-8.2991,-8.3013,-8.2784,-8.2784,-8.2784,0,0,-7.9119,-7.9525,-7.9595,-7.9913,-8.0168,-8.0535,-8.0681,-8.078,-8.1052,-8.1053,-8.1311,-8.1396,-8.1713,-8.1901,-8.1793,-8.2316,-8.2309,-8.2341,-8.2179,-8.219,-8.2195,-8.2142,-8.1897,0,0,0,0,0,-7.9278,-7.9474,-7.9532,-7.9623,-8.0152,-8.0499,-8.057,-8.0778,-8.0765,-8.0876,-8.1103,-8.1201,-8.1895,-8.1805,-8.1898,-8.2016,-8.271,-8.2723,-8.2736,-8.2607,-8.2615,-8.2621,0,0,0,0,0,0,-7.9316,-7.9426,-7.9528,-7.9896,-8.0018,-8.0495,-8.0519,-8.0581,-8.0758,-8.0771,-8.1153,-8.1213,-8.1405,-8.1773,-8.1853,-8.196,-8.1871,-8.2716,-8.2727,-8.2737,-8.261,-8.2616,-8.2621,0,0,0,0,0,-7.9347,-7.9435,-8.0225,-7.9896,-8.0001,-8.0324,-8.0513,-8.0566,-8.0707,-8.1058,-8.1119,-8.0847,-8.1402,-8.1485,-8.1822,-8.1918,-8.1817,-8.1846,-8.2723,-8.2732,-8.2739,-8.2613,0,0,0,0,0,0,-7.937,-7.9491,-8.0251,-8.0292,-7.9835,-8.0302,-8.0381,-8.055,-8.0988,-8.105,-8.0764,-8.0768,-8.1403,-8.1467,-8.153,-8.1891,-8.1772,-8.1802,-8.1821,-8.2729,-8.2736,-8.2742,0,0,0,0,0,0,-7.9445,-7.9523,-8.0272,-8.0183,-8.0216,-8.028,-8.0351,-8.0671,-8.0992,-8.0671,-8.0688,-8.0761,-8.1313,-8.1455,-8.1505,-8.1996,-8.1738,-8.1767,-8.1786,-8.1799,-8.2735,-8.274,0,0,0,0,0,0,-7.9482,-7.955,-8.0174,-8.0199,-8.0227,-8.0696,-8.0569,-8.1102,-8.0901,-8.0649,-8.089,-8.0885,-8.1299,-8.1353,-8.1487,-8.1955,-8.1985,-8.1739,-8.1759,-8.1772,-8.1781,0,0,0,0,0,0,0,-7.9512,-7.9005,-8.0011,-8.0212,-8.0236,-8.0664,-8.0675,-8.0686,-8.09,-8.0896,-8.0891,-8.0887,-8.1576,-8.1607,-8.1639,-8.1922,0,0,-8.1736,-8.175,0,0,0,0,0,0,0,0,-7.8982,-7.8999,-8.0012,-8.002,-8.0028,-8.0665,-8.0675,-8.0684,-8.0899,-8.0896,-8.0892,-8.0889,-8.1584,-8.1609,-8.1635,0,0,0,0,0,0,0,0,0,0,0,0,0,0,0,-8.0013,-8.002,0,-8.0667,-8.0674,-8.0682,-8.0899,-8.0896,-8.0893,-8.089,-8.1591,-8.1612,-8.1633,0,0,0,0,0,0,0,0,0,0,0,0,0,0,0,0,0,0,0,0,0,0,0,0,0,0,0,0,0,0,0,0,0,0,0,0,0,0,0,0,0,0,0,0,0,0,0,0,0,0,0,0,0,0,0,0,0,0,0,0,0,0,0,0,0,0,0,0,0]}],[{"header":{"parameterUnit":"kt","parameterCategory":2,"dx":1,"dy":1,"la1":30.253999710083008,"la2":30.299108505249023,"lo1":-89.0895004272461,"lo2":-89.04439544677734,"nx":28,"ny":28,"refTime":"2022-10-28T21:00:00:Z","depth":0,"parameterNumber":2,"parameterNumberName":"V-component_of_WINDS"},"data":[2.6709,2.6833,2.6876,2.7041,2.7108,2.7231,2.729,2.7372,2.745,2.7608,2.7709,2.7771,2.7873,2.801,2.8127,2.8154,2.8203,2.8215,2.8246,2.8141,2.813,2.8119,2.809,2.8223,2.8224,2.8348,2.835,2.835,2.6635,2.67,2.6798,2.6923,2.701,2.7024,2.7127,2.7201,2.7313,2.741,2.751,2.7655,2.7779,2.7879,2.8008,2.8076,2.8094,2.8108,2.8106,2.8123,2.8012,2.798,2.8092,2.8092,2.8092,2.8092,2.8092,2.8092,2.6511,2.6583,2.6681,2.6789,2.6864,2.6949,2.7029,2.7099,2.7201,2.7333,2.7369,2.7499,2.761,2.7788,2.7861,2.797,2.7963,2.7996,2.8005,2.8013,2.8016,2.7836,2.7994,2.7994,2.7994,2.7993,2.7993,0,2.6434,2.6464,2.656,2.6669,2.675,2.6841,2.6932,2.6983,2.7069,2.715,2.7272,2.7352,2.7512,2.7638,2.7769,2.784,2.787,2.7877,2.7901,2.7886,2.7857,2.7878,2.7698,2.7873,2.7872,2.7872,2.7871,2.7871,2.6316,2.6393,2.6516,2.6579,2.6637,2.6738,2.6808,2.6876,2.6948,2.7076,2.714,2.7264,2.7367,2.7563,2.7653,2.7776,2.7793,2.7855,2.7812,2.7794,2.7799,2.7795,2.7806,2.7862,2.7863,2.7864,2.7865,0,2.6246,2.6313,2.6447,2.6563,2.6595,2.6675,2.6778,2.6856,2.6917,2.7035,2.7067,2.7165,2.7287,2.7367,2.7525,2.7564,2.7713,2.7724,2.7676,2.7683,2.775,2.7744,2.7945,2.7977,2.7836,2.7837,2.7838,0,2.6173,2.6273,2.6368,2.6442,2.6558,2.6621,2.6736,2.6799,2.6889,2.6982,2.7023,2.7111,2.7198,2.73,2.7358,2.7493,2.7522,2.7562,2.7576,2.7559,2.7555,2.7604,2.7599,2.7601,2.76,2.7599,2.7598,0,2.6058,2.6225,2.6345,2.6394,2.6528,2.6585,2.6645,2.6746,2.6815,2.6918,2.6965,2.7082,2.7147,2.7241,2.7313,2.7281,2.7478,2.745,2.752,2.7518,2.7561,2.7557,2.7712,2.7597,2.7596,2.7596,2.7596,0,2.601,2.6103,2.6266,2.6379,2.642,2.6501,2.6616,2.6702,2.6807,2.6846,2.6928,2.6966,2.7085,2.7052,2.7222,2.716,2.7224,2.7272,2.7279,2.7297,2.7257,2.7338,2.7474,2.7494,2.7312,2.7309,2.7307,0,2.5863,2.6042,2.6095,2.625,2.6344,2.6381,2.6474,2.6562,2.6621,2.6715,2.6783,2.6891,2.6881,2.6927,2.7,2.7076,2.7157,2.7068,2.7215,2.722,2.7187,2.7313,2.7314,2.7435,2.7278,2.7281,2.7283,0,2.5756,2.591,2.5933,2.5993,2.6114,2.6193,2.6298,2.6415,2.6474,2.6569,2.6663,2.6815,2.6816,2.689,2.6933,2.7005,2.7105,2.6997,2.7001,2.7017,2.7268,2.7269,2.7289,2.7119,2.7123,2.7126,2.726,0,2.5674,2.577,2.5835,2.596,2.6032,2.6131,2.6205,2.6273,2.6304,2.6362,2.6501,2.6596,2.6721,2.6762,2.6795,2.6931,2.6922,2.6921,2.6896,2.6977,2.7023,2.7042,2.6821,2.6821,2.682,2.682,0,0,2.5518,2.5656,2.5708,2.5808,2.5872,2.5906,2.6007,2.6075,2.6211,2.6258,2.6243,2.6471,2.655,2.6711,2.6742,2.6791,2.6826,2.6793,2.6937,2.6949,2.6962,2.701,2.7028,2.682,2.682,2.682,2.682,0,2.5502,2.5567,2.5661,2.5731,2.5837,2.5891,2.5914,2.6027,2.6069,2.6201,2.6233,2.6326,2.6505,2.6585,2.6649,2.6775,2.6797,2.6807,2.6849,2.6932,2.6944,2.6956,2.7006,2.7022,2.6819,2.6819,2.6819,0,2.5412,2.549,2.5541,2.5682,2.5752,2.5848,2.5838,2.5938,2.6012,2.605,2.6181,2.6245,2.6358,2.6497,2.6564,2.6553,2.6767,2.6712,2.6716,2.6726,2.681,2.6826,2.6839,2.666,2.6659,2.6658,0,0,2.5389,2.5476,2.5581,2.5684,2.5726,2.5807,2.5865,2.59,2.5995,2.6033,2.6114,2.621,2.6316,2.6384,2.6487,2.6629,2.6661,2.6689,2.6696,2.6702,2.6715,2.6801,2.6816,2.6655,2.6654,2.6654,0,0,2.5379,2.5502,2.5514,2.564,2.5726,2.5841,2.5904,2.5923,2.6021,2.6018,2.6089,2.6118,2.625,2.6312,2.6257,2.6481,2.6454,2.6469,2.6435,2.6445,2.6453,2.6437,2.6264,0,0,0,0,0,2.5398,2.5486,2.5495,2.5527,2.5707,2.5834,2.5859,2.5914,2.5894,2.5943,2.6015,2.6032,2.6297,2.625,2.6285,2.6346,2.6611,2.6618,2.6626,2.6616,2.6626,2.6635,0,0,0,0,0,0,2.5411,2.5449,2.5493,2.5609,2.565,2.5832,2.581,2.5828,2.589,2.5891,2.6017,2.6036,2.6091,2.6237,2.6267,2.6324,2.6254,2.6614,2.662,2.6626,2.6619,2.6628,2.6635,0,0,0,0,0,2.5422,2.5452,2.5724,2.5609,2.5645,2.574,2.5807,2.5822,2.5872,2.5981,2.6,2.5908,2.6091,2.612,2.6255,2.6309,2.6234,2.6244,2.6618,2.6623,2.6628,2.6624,0,0,0,0,0,0,2.543,2.547,2.5733,2.5746,2.5578,2.5731,2.5756,2.5816,2.5959,2.5978,2.5875,2.5874,2.6092,2.6115,2.6137,2.63,2.6217,2.6228,2.6235,2.6622,2.6626,2.663,0,0,0,0,0,0,2.5454,2.5481,2.5739,2.5697,2.5706,2.5723,2.5745,2.5869,2.5961,2.5845,2.5848,2.5873,2.6061,2.6111,2.6129,2.6319,2.6204,2.6215,2.6222,2.6227,2.6625,2.6629,0,0,0,0,0,0,2.5466,2.549,2.5694,2.5701,2.5708,2.5862,2.5834,2.6017,2.5917,2.5839,2.591,2.5907,2.6057,2.6076,2.6123,2.6305,2.6316,2.6204,2.6212,2.6217,2.622,0,0,0,0,0,0,0,2.5476,2.5305,2.5653,2.5704,2.5711,2.5868,2.5872,2.5876,2.5916,2.5913,2.5911,2.5908,2.6143,2.6155,2.6167,2.6294,0,0,2.6203,2.6209,0,0,0,0,0,0,0,0,2.5297,2.5303,2.5653,2.5656,2.5659,2.5869,2.5872,2.5875,2.5915,2.5913,2.5911,2.5909,2.6146,2.6156,2.6165,0,0,0,0,0,0,0,0,0,0,0,0,0,0,0,2.5654,2.5656,0,2.5869,2.5872,2.5874,2.5915,2.5913,2.5912,2.591,2.6149,2.6157,2.6165,0,0,0,0,0,0,0,0,0,0,0,0,0,0,0,0,0,0,0,0,0,0,0,0,0,0,0,0,0,0,0,0,0,0,0,0,0,0,0,0,0,0,0,0,0,0,0,0,0,0,0,0,0,0,0,0,0,0,0,0,0,0,0,0,0,0,0,0,0]}]]]